DECAYED

FENGYUN 1C DEB, 30486 (Decayed)

Orbit data source: Space-Track

FENGYUN 1C DEB, 30486 was space debris in LEO originally from a launch on Mon, 10 May 1999 UTC launched from the Taiyaun Space Center, China (TSC). Fengyun 1C debris stems from the Chinese weather satellite Fengyun-1C, which was intentionally destroyed by a Chinese anti-satellite missile in 2007. This event dramatically increased the amount of space debris, with thousands of trackable fragments posing hazards to satellites and human spaceflight. The Fengyun 1C debris cloud has become a focal point in discussions about space sustainability and the need for international regulations to prevent the creation of new debris.

Not visible in the next 10 days
Identifier
30486, 1999-025AGY
Orbit
Decayed
Country
Flag of CNCN / PRC
Related business
Manufacturer
Unknown
Mission
Decayed spacecraft
Bus & Motor
Unknown
Mass
Unknown
Launch date (UTC)
1999-05-10 (27 years ago)
Launch vehicle
Unknown
Launch site
Taiyaun Space Center, China (TSC)
Object type
Payload
Rocket body
Debris
Shape & HBR
Unknown shape, 0.1 m
Radar Cross Section
Medium (>0.1 m² and <1 m²)

Expand to show TLE details & history
Last TLE update: 7 months ago

TLE from 7 months ago
0 FENGYUN 1C DEB
1 30486U 99025AGY 25346.58548161  .05760611  33334-5  23758-2 0  9998
2 30486  98.7858  20.8386 0008535 225.1506 134.9087 16.23152353 17525
Epoch: 2025-12-12T14:03Z
TLE epoch observation values (Epoch: 2025-12-12T14:03:05.611Z)
Latitude
-0.00004°
Longitude
88.54024°
Altitude
218.164 km
Speed
7.773 km/s
True Right ascension
01h 23m 21s
True Declination
0° 00' 00"
Sunlit
Object was in full shadow at epoch
Visualization orbit readout
Latitude
Unknown
Longitude
Unknown
Altitude
Unknown
Speed
Unknown
Apparent Right ascension
Unknown
Apparent Declination
Unknown
Sunlit
N/A
Visualization observer readout
Local Sidereal Time
08:45:38
Azimuth
Unknown
Elevation
Unknown
Doppler factor
Unknown
Orbital elements
Apogee altitude
213.525 km
Perigee altitude
202.283 km
Semi-major axis
6,586.041 km
Eccentricity
0.00085
Inclination
98.7858°
RAAN
20.8386°
Arg. of periapsis
225.1506°
True anomaly
134.97792°
Mean anomaly
134.9087°
Eccentric anomaly
134.94331°
Mean motion
4.06075 °/min
Orbital period
88.65 mins
BSTAR
0.0023758
Loading maneuver chart data...
Computing Atmospheric mass density...
Loading historical data...
Loading historical data...
Loading historical data...
Loading historical data...
Loading historical data...
Loading historical data...
Loading historical data...

Documentation

Showing up to 5 results
|